Weather History for CWYY - July, 2013

Change the Weather History Date:

Friday, July 5, 2013

  Actual Average Record
Temperature  
Mean Temperature 76 °F -  
Max Temperature 86 °F - - ()
Min Temperature 66 °F - - ()
Cooling Degree Days 11    
Growing Degree Days 26 (Base 50)    
Moisture  
Dew Point 45 °F    
Average Humidity 33    
Maximum Humidity 52    
Minimum Humidity 14    
Precipitation  
Precipitation 0.00 in - - ()
Sea Level Pressure  
Sea Level Pressure 29.79 in    
Wind  
Wind Speed 8 mph ()    
Max Wind Speed 14 mph    
Max Gust Speed 22 mph    
T = Trace of Precipitation, MM = Missing Value Source: Averaged Metar Reports

Daily Weather History Graph

Daily Weather History Graph

Search for Another Location

Airport or City:

Trip Planner

Search our weather history database for the weather conditions in past years. The results will help you decide how hot, cold, wet, or windy it might be!

Date:

Astronomy

Jul. 05, 2013 Rise Set
Actual Time 5:00 AM PDT 9:03 PM PDT
Civil Twilight 4:18 AM PDT 9:45 PM PDT
Nautical Twilight 3:19 AM PDT 10:44 PM PDT
Astronomical Twilight 1:27 AM PDT 12:32 AM PDT
Moon 3:09 AM PDT (7/5) 6:57 PM PDT (7/5)
Length of Visible Light 17h 27m
Length of Day
16h 03m
Waning Crescent, 6% of the Moon is Illuminated
Jul 5
Waning Crescent
Jul 8
New
Jul 15
First Quarter
Jul 22
Full
Jul 29
Last Quarter

Hourly Weather History & Observations

Time (PDT) Temp. Dew Point Humidity Pressure Visibility Wind Dir Wind Speed Gust Speed Precip Events Conditions
12:00 AM 70.9 °F 43.2 °F 37% 29.81 in - North 11.5 mph 20.7 mph N/A   Unknown
1:00 AM 72.7 °F 41.0 °F 32% 29.81 in - North 13.8 mph 21.9 mph N/A   Unknown
2:00 AM 71.1 °F 42.6 °F 36% 29.82 in - NNW 10.4 mph 19.6 mph N/A   Unknown
3:00 AM 69.8 °F 43.3 °F 38% 29.82 in - NNW 10.4 mph 19.6 mph N/A   Unknown
4:00 AM 69.8 °F 44.4 °F 40% 29.82 in - NNW 9.2 mph - N/A   Unknown
5:00 AM 69 °F 46 °F 32% 29.83 in - NW 6.9 mph - -  
5:00 AM 69.1 °F 46.0 °F 44% 29.83 in - NW 6.9 mph - N/A   Unknown
6:00 AM 66.9 °F 48.0 °F 51% 29.83 in - NW 5.8 mph - N/A   Unknown
7:00 AM 67.5 °F 48.7 °F 51% 29.84 in - WNW 6.9 mph - N/A   Unknown
8:00 AM 70.9 °F 47.1 °F 43% 29.84 in - NNW 9.2 mph - N/A   Unknown
9:00 AM 72.1 °F 47.3 °F 41% 29.83 in - NNW 8.1 mph - N/A   Unknown
10:00 AM 75.2 °F 46.6 °F 36% 29.82 in - North 12.7 mph 19.6 mph N/A   Unknown
11:00 AM 76 °F 44 °F 22% 29.81 in - North 12.7 mph - -  
11:00 AM 76.3 °F 44.2 °F 32% 29.81 in - North 12.7 mph - N/A   Unknown
12:00 PM 79.3 °F 44.1 °F 29% 29.79 in - NNW 10.4 mph 17.3 mph N/A   Unknown
1:00 PM 82.2 °F 43.9 °F 26% 29.77 in - NNW 10.4 mph 17.3 mph N/A   Unknown
2:00 PM 84.2 °F 40.1 °F 21% 29.75 in - NNW 10.4 mph 18.4 mph N/A   Unknown
3:00 PM 85.8 °F 42.8 °F 22% 29.74 in - NNW 8.1 mph - N/A   Unknown
4:00 PM 85.1 °F 41.9 °F 22% 29.73 in - North 10.4 mph 19.6 mph N/A   Unknown
5:00 PM 85 °F 44 °F 14% 29.73 in - NNW 11.5 mph - -  
5:00 PM 84.6 °F 43.9 °F 24% 29.73 in - NNW 11.5 mph 19.6 mph N/A   Unknown
6:00 PM 84.2 °F 41.9 °F 22% 29.73 in - NNW 9.2 mph - N/A   Unknown
7:00 PM 82.9 °F 43.2 °F 25% 29.74 in - NNW 9.2 mph 17.3 mph N/A   Unknown
8:00 PM 80.1 °F 42.6 °F 26% 29.75 in - NW 6.9 mph - N/A   Unknown
9:00 PM 76.5 °F 44.2 °F 32% 29.78 in - NNW 4.6 mph - N/A   Unknown
10:00 PM 71.8 °F 47.1 °F 41% 29.80 in - North 2.3 mph - N/A   Unknown
11:00 PM 67 °F 49 °F 41% 29.81 in - ENE 2.3 mph - -  
11:00 PM 66.9 °F 48.6 °F 52% 29.81 in - ENE 2.3 mph - N/A   Unknown